Regional Weather Roundup
Issued by NWS Little Rock, AR

Home | Current Version | Previous Version | Text Only | Print | Product List | Glossary Off
Versions: 1 2 3 4 5 6 7 8 9 10 11 12 13 14 15 16 17 18 19 20 21 22 23 24 25 26 27 28 29 30 31

000
ASUS44 KLZK 170105
RWRLZK

WEATHER ROUNDUP FOR ARKANSAS
NATIONAL WEATHER SERVICE LITTLE ROCK AR
800 PM CDT WED AUG 16 2017

NOTE: "FAIR" INDICATES FEW OR NO CLOUDS BELOW 12,000 FEET WITH NO
SIGNIFICANT WEATHER AND/OR OBSTRUCTIONS TO VISIBILITY.

ARZ001-003-010-029-170200-
NORTHWEST ARKANSAS

CITY           SKY/WX    TMP DP  RH WIND       PRES   REMARKS
FAYETTEVILLE   CLEAR     79  75  87 SE6       29.90S
FORT SMITH     CLEAR     86  76  71 S6        29.85F HX  96
HARRISON       PTCLDY    80  74  81 S6        29.94R HX  85
BENTONVILLE    PTCLDY    79  73  83 S7        29.91S
ROGERS         CLOUDY    78  74  87 SE5       29.92R
SILOAM SPGS    CLEAR     79  73  83 S7        29.89R
HIGHFILL       CLEAR     79  76  90 S8        29.90S
SPRINGDALE     MOCLDY    81  75  83 S6        29.92S HX  86
$$

ARZ004-005-016-170200-
NORTH CENTRAL ARKANSAS

CITY           SKY/WX    TMP DP  RH WIND       PRES   REMARKS
BATESVILLE     CLEAR     84  73  70 S3        29.92F HX  91
FLIPPIN        CLOUDY    82  70  65 CALM      29.90R HX  86
MTN HOME       CLOUDY    79  76  90 CALM      29.93R
$$

ARZ040-041-170200-
WEST CENTRAL ARKANSAS

CITY           SKY/WX    TMP DP  RH WIND       PRES   REMARKS
MENA           CLEAR     86  81  84 CALM      29.92F HX 102
MOUNT IDA      CLEAR     84  72  67 CALM      29.90F HX  89
$$

ARZ009-017-025-026-028-170200-
NORTHEAST ARKANSAS

CITY           SKY/WX    TMP DP  RH WIND       PRES   REMARKS
CORNING        FAIR      84  82  94 S8        29.92S HX 101
JONESBORO      CLEAR     83  79  88 S8        29.92F HX  94
NEWPORT        CLEAR     80  77  90 S8        29.92F HX  87
WALNUT RIDGE   CLOUDY    82  75  78 S3        29.92S HX  89
BLYTHEVILLE    PTCLDY    83  78  85 S5        29.95S HX  93
$$

ARZ022-023-033-042-044-170200-
CENTRAL ARKANSAS

CITY           SKY/WX    TMP DP  RH WIND       PRES   REMARKS
LITTLE ROCK    MOCLDY    83  78  85 S6        29.91F HX  93
N LITTLE ROCK    N/A     86  75  69 S5        29.92S HX  95
JACKSONVILLE   CLEAR     85  76  73 SE5       29.91F HX  95
CONWAY           N/A     82  77  83 S5        29.88F HX  91
SEARCY           N/A    N/A N/A N/A MISG        N/A
HOT SPRINGS    CLEAR     87  76  69 S5        29.92F HX  97
RUSSELLVILLE   CLEAR     84  75  74 CALM      29.88F HX  92
CLINTON        FAIR      82  75  78 CALM      29.91S HX  89
$$

ARZ036-170200-
EAST ARKANSAS

CITY           SKY/WX    TMP DP  RH WIND       PRES   REMARKS
WEST MEMPHIS   CLEAR     82  78  88 S3        29.94S HX  91
$$

ARZ050-053-066-070-073-170200-
SOUTHWEST ARKANSAS

CITY           SKY/WX    TMP DP  RH WIND       PRES   REMARKS
ARKADELPHIA    FAIR      85  80  85 CALM      29.91F HX  99
CAMDEN         CLEAR     84  75  74 S9        29.92S HX  92
TEXARKANA      CLEAR     85  76  74 S7        29.90F HX  94
EL DORADO      PTCLDY    78  71  79 S7        29.95F
DE QUEEN       CLEAR     85  78  80 SE5       29.86F HX  96
$$

ARZ056-057-069-170200-
SOUTHEAST ARKANSAS

CITY           SKY/WX    TMP DP  RH WIND       PRES   REMARKS
PINE BLUFF     CLEAR     83  73  72 S5        29.93F HX  89
MONTICELLO     PTCLDY    84  76  76 S8        29.95R HX  93

$$






USA.gov is the U.S. government's official web portal to all federal, state and local government web resources and services.